Regional Weather Roundup
Issued by NWS

Home | Current Version | Previous Version | Graphics & Text | Print | Product List | Glossary On
Versions: 1 2 3 4 5 6 7 8 9 10 11 12 13 14 15 16 17 18 19 20 21 22 23 24 25 26 27 28 29 30 31 32 33 34 35 36 37 38 39 40 41 42 43 44 45 46 47 48 49 50
000
ASUS43 KDTX 260510
RWRMI
MICHIGAN HOURLY REGIONAL WEATHER ROUNDUP
NATIONAL WEATHER SERVICE DETROIT/PONTIAC MI
100 AM EDT SAT JUL 26 2014

NOTE: "FAIR" INDICATES FEW OR NO CLOUDS BELOW 12,000 FEET WITH NO
SIGNIFICANT WEATHER AND/OR OBSTRUCTION TO VISIBILITY.

MIZ047>049-052>055-059>063-066>070-074>076-081>083-260600-
SOUTHEAST LOWER MICHIGAN

CITY           SKY/WX    TMP DP  RH WIND       PRES   REMARKS
ADRIAN         PTCLDY    62  60  93 CALM      30.00R
ALMA           PTCLDY    62  56  83 S6        29.95S
ANN ARBOR      MOCLDY    60  55  83 CALM      29.98S
BAD AXE        CLOUDY    64  58  80 S5        29.94S
DETROIT CITY   MOCLDY    70  53  54 SW5       29.98R
DETROIT        PTCLDY    64  58  80 S5        29.99R
FLINT          CLEAR     65  55  70 S6        29.96S
GROSSE ILE     PTCLDY    66  59  77 CALM      29.97S
HILLSDALE      CLEAR     58  58 100 CALM      30.00R
HOWELL         CLEAR     63  56  79 SW3       29.98R

CITY           SKY/WX    TMP DP  RH WIND       PRES   REMARKS
JACKSON        CLEAR     62  58  86 S7        29.98S
LAMBERTVILLE   PTCLDY    63  59  88 CALM      30.00R FOG
LANSING        CLEAR     64  57  78 S7        29.97R
LAPEER         NOT AVBL
MASON          PTCLDY    62  57  83 CALM      29.98R
MONROE         FOG       63  61  94 CALM      29.97S VSB 1
MT. CLEMENS    CLOUDY    69  55  62 SW6       29.97R
PONTIAC        PTCLDY    66  53  63 SW5       29.98R
PORT HOPE        N/A     67  55  65 SW3       29.92S
PORT HURON     CLOUDY    64  59  82 CALM      29.96F
TRI CITIES     MOCLDY    68  57  68 SW10      29.95S
YPSILANTI      PTCLDY    67  57  70 S6        29.98F
$$
MIZ043>046-050>051-056>058-064>065-071>073-077>080-260600-
SOUTHWEST LOWER MICHIGAN

CITY           SKY/WX    TMP DP  RH WIND       PRES   REMARKS
BATTLE CREEK   CLEAR     63  58  83 S6        29.98S
BENTON HARBOR  CLEAR     63  58  83 SE3       29.95F
BIG RAPIDS     CLEAR     63  56  78 SW3       29.92F
COLDWATER      CLEAR     62  60  94 CALM      29.99S
HOLLAND        CLEAR     63  59  87 S5        29.94F
GRAND RAPIDS   CLEAR     63  59  87 S6        29.95F
KALAMAZOO      CLEAR     63  58  83 S7        29.97S
MARSHALL       PTCLDY    60  58  94 S9        29.97F
MUSKEGON       CLOUDY    69  59  70 S13       29.92F
$$
MIZ016>042-260600-
NORTHERN LOWER MICHIGAN

CITY           SKY/WX    TMP DP  RH WIND       PRES   REMARKS
ALPENA         MOCLDY    64  59  83 S3        29.89F
BEAVER ISLAND  CLOUDY    64  59  84 SW13      29.85S
BELLAIRE       CLOUDY    66  56  70 S5        29.87F
CADILLAC       PTCLDY    62  58  85 SW13      29.91F
CHARLEVOIX     CLOUDY    68  58  70 SW8       29.89S
FRANKFORT      CLOUDY    68  57  66 SW9       29.88S
GAYLORD        CLOUDY    63  55  75 SW8       29.90F
GRAYLING       CLOUDY    64  56  74 S5        29.92S
HARBOR SPRINGS CLOUDY    66  58  74 SW5       29.86F
HOUGHTON LAKE  CLOUDY    65  56  72 S7        29.92F
MANISTEE       CLOUDY    66  55  68 S6        29.90S
OSCODA         CLOUDY    66  58  75 S5        29.90S
PELLSTON       CLOUDY    61  58  90 CALM      29.86F
TRAVERSE CITY  CLOUDY    68  56  65 S5        29.87S
$$
MIZ007>008-015-260600-
EASTERN UPPER MICHIGAN

CITY           SKY/WX    TMP DP  RH WIND       PRES   REMARKS
KINROSS        CLOUDY    61  61 100 S5        29.85F
MACKINAC ISLAN CLOUDY    64  57  79 SW7       29.85S
NEWBERRY       CLEAR     58  56  96 S10G16    29.83S
S. S. MARIE    CLOUDY    63  57  81 SW3       29.85S
$$
MIZ004>006-011>014-085-260600-
CENTRAL UPPER MICHIGAN

CITY           SKY/WX    TMP DP  RH WIND       PRES   REMARKS
MANISTIQUE     PTCLDY    58  57  97 S8        29.83S FOG
ESCANABA       PTCLDY    64  59  82 SW7       29.83R
MENOMINEE      PTCLDY    64  59  82 SW6       29.84S
SAWYER-GWINN   PTCLDY    65  61  86 SW7       29.82S
$$
MIZ001>003-009>011-084-260600-
WESTERN UPPER MICHIGAN

CITY           SKY/WX    TMP DP  RH WIND       PRES   REMARKS
IRON MOUNTAIN  CLOUDY    65  61  87 S3        29.83R
HOUGHTON       CLOUDY    65  63  93 CALM      29.78F
COPPER HARBOR    N/A     64  60  87 CALM      29.77S
$$

ABBREVIATIONS USED IN REMARKS
   TC - TEMPERATURE IN CELSIUS
  WCI - WIND CHILL INDEX
   HX - HEAT INDEX
  VSB - VISIBILITY




USA.gov is the U.S. government's official web portal to all federal, state and local government web resources and services.